Date String (YYYY-MM-DD hh:mm:ss) UTC,Instrument flags,Ambient pressure (hPa),Sample flow (lpm),Bypass flow (lpm),Sample temperature (°C),Ambient temperature (°C),ASC tube jacket temperature (°C),LED temperature (°C),Box temperature (°C),Sample RH (%),Span deviation,Mass concentration (μg/m³),Mass concentration (μg/m³),Mass concentration (μg/m³)
DateTimeUTC,F1_M11,P_M11,Q1_M11,Q2_M11,T1_M11,T2_M11,T3_M11,T4_M11,T5_M11,U1_M11,ZSPAN_M11,X0_M11,X2_M11,X1_M11
2022-02-27 00:00:00,,0831.8,5.00,0.00,25.4,24.6,00.0,34.4,27.2,05.5,0002.0,0014.96,0009.96,0009.32
2022-02-27 00:01:00,,0831.9,5.00,0.00,25.4,24.6,00.0,34.4,27.2,05.5,0001.9,0015.08,0009.96,0009.29
2022-02-27 00:02:00,,0831.9,4.99,0.00,25.4,24.6,00.0,34.4,27.2,05.5,0002.0,0015.64,0009.98,0009.27
2022-02-27 00:03:00,,0831.9,5.00,0.00,25.4,24.6,00.0,34.4,27.2,05.6,0001.7,0015.66,0009.95,0009.24
2022-02-27 00:04:00,,0832.0,5.00,0.00,25.4,24.6,00.0,34.4,27.2,05.7,0002.2,0015.55,0009.93,0009.21
2022-02-27 00:05:00,,0832.0,5.00,0.00,25.4,24.6,00.0,34.3,27.2,05.6,0002.0,0015.10,0009.89,0009.17
2022-02-27 00:06:00,,0832.0,5.00,0.00,25.4,24.6,00.0,34.4,27.2,05.5,0002.1,0015.02,0009.85,0009.14
2022-02-27 00:07:00,,0832.0,5.00,0.00,25.4,24.6,00.0,34.4,27.2,05.4,0001.2,0015.03,0009.83,0009.11
2022-02-27 00:08:00,,0831.9,5.00,0.00,25.4,24.6,00.0,34.4,27.2,05.2,0000.7,0014.86,0009.76,0009.07
2022-02-27 00:09:00,,0831.9,5.00,0.00,25.4,24.6,00.0,34.4,27.2,05.3,0001.3,0014.71,0009.70,0009.03
2022-02-27 00:10:00,,0831.9,5.00,0.00,25.4,24.6,00.0,34.4,27.2,05.5,0001.5,0015.00,0009.70,0009.01
2022-02-27 00:11:00,,0831.9,5.00,0.00,25.4,24.6,00.0,34.4,27.2,05.3,0001.9,0014.99,0009.66,0008.98
2022-02-27 00:12:00,,0831.8,5.00,0.00,25.4,24.6,00.0,34.4,27.2,05.1,0001.7,0014.83,0009.60,0008.94
2022-02-27 00:13:00,,0831.9,5.00,0.00,25.4,24.6,00.0,34.4,27.2,05.0,0001.5,0014.35,0009.55,0008.89
2022-02-27 00:14:00,,0831.8,5.00,0.00,25.4,24.6,00.0,34.4,27.2,05.1,0001.6,0014.16,0009.49,0008.83
2022-02-27 00:15:00,,0831.9,5.00,0.00,25.4,24.6,00.0,34.4,27.2,05.1,0001.6,0013.33,0009.45,0008.77
2022-02-27 00:16:00,,0831.9,5.00,0.00,25.4,24.6,00.0,34.4,27.1,05.1,0002.2,0013.35,0009.41,0008.73
2022-02-27 00:17:00,,0831.9,5.00,0.00,25.4,24.5,00.0,34.3,27.1,05.0,0002.3,0013.65,0009.34,0008.68
2022-02-27 00:18:00,,0831.9,5.00,0.00,25.4,24.5,00.0,34.3,27.1,05.0,0002.9,0014.22,0009.29,0008.63
2022-02-27 00:19:00,,0831.9,5.00,0.00,25.3,24.5,00.0,34.3,27.1,05.2,0002.9,0014.51,0009.24,0008.61
2022-02-27 00:20:00,,0832.0,5.00,0.00,25.3,24.5,00.0,34.3,27.1,05.2,0002.1,0014.77,0009.21,0008.59
2022-02-27 00:21:00,,0832.0,5.00,0.00,25.3,24.5,00.0,34.3,27.1,05.3,0002.2,0014.92,0009.17,0008.53
2022-02-27 00:22:00,,0832.0,5.01,0.00,25.3,24.5,00.0,34.3,27.1,05.3,0001.8,0014.87,0009.13,0008.50
2022-02-27 00:23:00,,0831.9,4.99,0.00,25.3,24.5,00.0,34.3,27.1,05.3,0001.5,0015.13,0009.09,0008.46
2022-02-27 00:24:00,,0832.0,4.99,0.00,25.3,24.5,00.0,34.3,27.1,05.3,0001.3,0014.98,0009.03,0008.44
2022-02-27 00:25:00,,0832.0,5.01,0.00,25.3,24.5,00.0,34.3,27.1,05.3,0001.3,0014.97,0009.02,0008.43
2022-02-27 00:26:00,,0832.0,5.01,0.00,25.3,24.5,00.0,34.3,27.1,05.3,0001.3,0014.91,0008.98,0008.40
2022-02-27 00:27:00,,0832.0,5.00,0.00,25.3,24.4,00.0,34.3,27.0,05.3,0000.9,0014.81,0008.94,0008.36
2022-02-27 00:28:00,,0832.0,5.00,0.00,25.3,24.4,00.0,34.3,27.0,05.3,0000.6,0014.64,0008.93,0008.33
2022-02-27 00:29:00,,0832.1,5.00,0.00,25.3,24.4,00.0,34.3,27.0,05.3,0000.7,0013.99,0008.91,0008.30
2022-02-27 00:30:00,,0832.1,4.99,0.00,25.3,24.4,00.0,34.3,27.0,05.3,0000.5,0013.63,0008.87,0008.25
2022-02-27 00:31:00,,0832.1,5.00,0.00,25.3,24.4,00.0,34.3,27.0,05.3,0001.6,0013.51,0008.82,0008.20
2022-02-27 00:32:00,,0832.1,5.00,0.00,25.3,24.4,00.0,34.3,27.0,05.3,0002.1,0013.08,0008.77,0008.14
2022-02-27 00:33:00,,0832.1,5.00,0.00,25.3,24.4,00.0,34.3,27.0,05.3,0002.7,0013.01,0008.69,0008.07
2022-02-27 00:34:00,,0832.1,5.00,0.00,25.2,24.3,00.0,34.3,27.0,05.3,0003.5,0012.70,0008.63,0008.01
2022-02-27 00:35:00,,0832.2,5.01,0.00,25.2,24.3,00.0,34.2,26.9,05.3,0003.3,0012.53,0008.51,0007.93
2022-02-27 00:36:00,,0832.1,5.00,0.00,25.2,24.3,00.0,34.2,26.9,05.3,0003.1,0012.29,0008.40,0007.87
2022-02-27 00:37:00,,0832.1,5.00,0.00,25.2,24.3,00.0,34.2,26.9,05.2,0003.0,0012.21,0008.34,0007.81
2022-02-27 00:38:00,,0832.1,5.00,0.00,25.1,24.3,00.0,34.2,26.8,05.2,0003.2,0012.06,0008.25,0007.73
2022-02-27 00:39:00,,0832.1,5.00,0.00,25.1,24.2,00.0,34.2,26.8,05.2,0003.6,0011.84,0008.20,0007.65
2022-02-27 00:40:00,,0832.1,4.99,0.00,25.1,24.2,00.0,34.2,26.8,05.3,0003.5,0011.86,0008.13,0007.56
2022-02-27 00:41:00,,0832.1,5.00,0.00,25.1,24.2,00.0,34.2,26.7,05.3,0003.6,0011.82,0008.05,0007.50
2022-02-27 00:42:00,,0832.1,5.00,0.00,25.0,24.2,00.0,34.1,26.7,05.3,0003.6,0012.14,0008.03,0007.45
2022-02-27 00:43:00,,0832.1,4.99,0.00,25.0,24.2,00.0,34.1,26.7,05.3,0003.2,0012.07,0007.98,0007.40
2022-02-27 00:44:00,,0832.1,5.00,0.00,25.0,24.1,00.0,34.1,26.7,05.3,0003.2,0012.23,0007.95,0007.35
2022-02-27 00:45:00,,0832.2,5.00,0.00,25.0,24.1,00.0,34.1,26.7,05.3,0003.0,0012.16,0007.91,0007.29
2022-02-27 00:46:00,,0832.1,5.00,0.00,25.0,24.1,00.0,34.1,26.6,05.2,0003.0,0012.17,0007.88,0007.23
2022-02-27 00:47:00,,0832.1,4.99,0.00,24.9,24.1,00.0,34.1,26.6,05.2,0003.5,0012.12,0007.82,0007.15
2022-02-27 00:48:00,,0832.1,5.01,0.00,24.9,24.0,00.0,34.0,26.6,05.2,0002.9,0012.19,0007.79,0007.07
2022-02-27 00:49:00,,0832.1,5.00,0.00,24.8,23.9,00.0,34.0,26.5,05.2,0002.4,0012.47,0007.74,0007.02
2022-02-27 00:50:00,,0832.1,5.00,0.00,24.8,23.9,00.0,34.0,26.4,05.2,0002.0,0012.62,0007.67,0006.97
2022-02-27 00:51:00,,0832.1,5.00,0.00,24.7,23.8,00.0,34.0,26.4,05.2,0001.4,0012.46,0007.61,0006.92
2022-02-27 00:52:00,,0832.2,5.00,0.00,24.7,23.8,00.0,33.9,26.3,05.2,0000.8,0012.41,0007.61,0006.89
2022-02-27 00:53:00,,0832.1,4.99,0.00,24.7,23.7,00.0,33.9,26.3,05.3,0000.7,0011.77,0007.55,0006.85
2022-02-27 00:54:00,,0832.1,4.99,0.00,24.6,23.7,00.0,33.9,26.3,05.4,0000.8,0011.67,0007.52,0006.83
2022-02-27 00:55:00,,0832.1,5.00,0.00,24.6,23.6,00.0,33.8,26.2,05.4,0000.6,0011.36,0007.48,0006.84
2022-02-27 00:56:00,,0832.1,5.01,0.00,24.5,23.5,00.0,33.8,26.1,05.5,0000.1,0011.42,0007.49,0006.85
2022-02-27 00:57:00,,0832.1,5.01,0.00,24.5,23.5,00.0,33.8,26.1,05.5,0000.2,0011.44,0007.51,0006.89
2022-02-27 00:58:00,,0832.1,5.00,0.00,24.4,23.4,00.0,33.7,26.0,05.5,0000.3,0011.68,0007.63,0006.96
2022-02-27 00:59:00,,0832.1,4.99,0.00,24.4,23.4,00.0,33.7,26.0,05.5,0000.4,0011.73,0007.71,0007.07
